Location: Laas
(43.4693°N, 0.3073°E)
Time: 15:56:08
(UTC+00:00)

CZ-4B R/B - Pass Details

Date: 25 October 2020
Orbit: 808 x 882 km, 99.1° (Epoch: 24 November)

Event Time Altitude Azimuth Distance (km) Brightness Sun altitude
Rises 17:34:18 0° 173° (S) 3,460 6.4 -7.0°
Reaches altitude 10° 17:36:43 10° 177° (S) 2,520 5.8 -7.4°
Maximum altitude 17:42:16 62° 258° (WSW) 969 3.9 -8.4°
Drops below altitude 10° 17:47:47 10° 339° (NNW) 2,497 5.8 -9.4°
Sets 17:50:10 0° 343° (NNW) 3,426 6.5 -9.8°
